Weather reports worldwide

Advertisment
East malling, United Kingdom (99008): temperature & dewpoint: 19.06.2017 23:00:00 - 25.06.2017 23:00:00 (BST)East malling, United Kingdom (99008): temperature 5cm: 19.06.2017 23:00:00 - 25.06.2017 23:00:00 (BST)East malling, United Kingdom (99008): temperature -20cm: 19.06.2017 23:00:00 - 25.06.2017 23:00:00 (BST)East malling, United Kingdom (99008): wind speed: 19.06.2017 23:00:00 - 25.06.2017 23:00:00 (BST)East malling, United Kingdom (99008): wind direction: 19.06.2017 23:00:00 - 25.06.2017 23:00:00 (BST)East malling, United Kingdom (99008): reduced air pressure: 19.06.2017 23:00:00 - 25.06.2017 23:00:00 (BST)East malling, United Kingdom (99008): visibility: 19.06.2017 23:00:00 - 25.06.2017 23:00:00 (BST)East malling, United Kingdom (99008): sunshine duration: 19.06.2017 23:00:00 - 25.06.2017 23:00:00 (BST)East malling, United Kingdom (99008): precipitation: 19.06.2017 23:00:00 - 25.06.2017 23:00:00 (BST)
Date & Time tt [°C] td [°C] tt 5cm [°C] tt -20cm [°C] ff [km/h] ff [kn] dd ppp [hPa] vv [km] sd [min] rr [mm]
25.06.2017 23:00:00 16,7 12,0 - - 8 4 W 1013,5 - 0 0,0
25.06.2017 22:00:00 17,2 11,6 - - 9 5 WSW 1013,2 - 6 0,0
25.06.2017 21:00:00 18,3 11,5 - - 11 6 W 1012,6 - 36 0,0
25.06.2017 20:00:00 20,1 11,5 - - 24 13 W 1011,9 - 42 0,0
25.06.2017 19:00:00 19,6 14,6 - - 18 10 SW 1011,5 - 12 0,0
25.06.2017 18:00:00 20,0 14,4 - - 18 10 SW 1011,4 - 6 0,0
25.06.2017 17:00:00 19,9 14,3 - - 18 10 SW 1011,4 - 0 0,0
25.06.2017 16:00:00 20,4 14,4 - - 21 11 SW 1011,8 - 18 0,0
25.06.2017 15:00:00 21,4 14,8 - - 18 10 SSW 1011,9 - 30 0,0
25.06.2017 14:00:00 20,7 14,3 - - 21 11 SW 1012,6 - 24 0,0
25.06.2017 13:00:00 19,4 13,3 - - 16 9 WSW 1012,9 - 0 0,0
25.06.2017 12:00:00 18,6 12,5 - - 18 10 WSW 1013,2 - 6 0,0
25.06.2017 11:00:00 18,0 13,2 - - 11 6 WSW 1013,2 - 0 0,0
25.06.2017 10:00:00 17,1 12,2 - 20,2 15 8 N 1013,2 3,9 6 0,0
25.06.2017 09:00:00 16,5 11,9 - - 16 9 WSW 1013,2 - 0 0,0
25.06.2017 08:00:00 15,7 11,6 - - 13 7 WSW 1013,1 - 0 0,0
25.06.2017 07:00:00 15,6 12,2 - - 11 6 WSW 1012,8 - 0 0,0
25.06.2017 06:00:00 14,9 11,9 - - 8 4 SW 1012,3 - 0 0,0
25.06.2017 05:00:00 15,2 11,8 - - 13 7 WSW 1012,3 - 6 0,0
25.06.2017 04:00:00 15,4 12,0 - - 11 6 W 1012,6 - 0 0,0
25.06.2017 03:00:00 15,6 12,2 - - 13 7 WSW 1012,4 - 0 0,0
25.06.2017 02:00:00 16,2 12,9 - - 15 8 W 1012,4 - 0 0,0
25.06.2017 01:00:00 17,2 14,8 - - 11 6 SW 1012,2 - - 0,0
25.06.2017 00:00:00 17,2 14,9 - - 11 6 SW 1012,4 - 0 0,0
24.06.2017 23:00:00 17,2 15,2 - - 15 8 SW 1012,6 - 0 0,0
24.06.2017 22:00:00 17,9 15,1 - - 18 10 SW 1012,6 - 6 0,0
24.06.2017 21:00:00 17,9 15,1 - - 15 8 SW 1012,3 - 18 0,0
24.06.2017 20:00:00 18,6 15,4 - - 16 9 SW 1012,5 - 12 0,0
24.06.2017 19:00:00 18,9 15,4 - - 16 9 SW 1012,6 - 0 0,0
24.06.2017 18:00:00 19,9 15,5 - - 22 12 SW 1012,6 - 6 0,0
24.06.2017 17:00:00 20,7 15,7 - - 18 10 SW 1012,9 - 24 0,0
24.06.2017 16:00:00 20,7 16,0 - - 21 11 SSW 1013,1 - 18 0,0
24.06.2017 15:00:00 19,8 17,0 - - 18 10 SSW 1013,9 - 6 0,0
24.06.2017 14:00:00 17,9 16,0 - - 21 11 SW 1014,3 - 0 0,0
24.06.2017 13:00:00 19,3 15,9 - - 18 10 SW 1014,5 - 0 0,0
24.06.2017 12:00:00 18,6 15,2 - - 13 7 SW 1014,6 - 0 0,0
24.06.2017 11:00:00 18,3 14,8 - - 15 8 SSW 1014,7 - 0 0,0
24.06.2017 10:00:00 18,7 14,6 - 21,2 115 62 N 1014,7 4,8 0 0,0
24.06.2017 09:00:00 18,6 14,7 - - 15 8 WSW 1014,9 - 6 0,0
24.06.2017 08:00:00 17,5 14,5 - - 13 7 SW 1015,0 - 0 0,0
24.06.2017 07:00:00 16,6 14,1 - - 13 7 SW 1014,9 - 0 0,0
24.06.2017 06:00:00 16,6 13,7 - - 13 7 SW 1014,9 - 0 0,0
24.06.2017 05:00:00 16,4 13,8 - - 13 7 SW 1015,0 - 0 0,0
24.06.2017 04:00:00 15,9 13,7 - - 11 6 SW 1015,1 - 0 0,0
24.06.2017 03:00:00 15,9 13,3 - - 13 7 SW 1015,5 - 0 0,0
24.06.2017 02:00:00 15,7 13,2 - - 13 7 SSW 1015,7 - 0 0,0
24.06.2017 01:00:00 16,1 13,3 - - 16 9 SW 1016,1 - - 0,0
24.06.2017 00:00:00 16,4 13,7 - - 16 9 SW 1016,1 - 0 0,0
23.06.2017 23:00:00 16,5 13,8 - - 16 9 SW 1016,4 - 0 0,0
23.06.2017 22:00:00 17,0 13,6 - - 16 9 SSW 1016,6 10 18 0,0
23.06.2017 21:00:00 18,0 13,1 - - 13 7 SSW 1016,7 - 30 0,0
23.06.2017 20:00:00 19,1 12,8 - - 18 10 SW 1016,8 - 60 0,0
23.06.2017 19:00:00 19,9 13,5 - - 18 10 SW 1016,4 - 18 0,0
23.06.2017 18:00:00 21,4 14,1 - - 18 10 SW 1016,4 - 18 0,0
23.06.2017 17:00:00 22,8 14,0 - - 21 11 WSW 1016,1 - 36 0,0
23.06.2017 16:00:00 22,4 12,7 - - 18 10 SW 1015,9 - 54 0,0
23.06.2017 15:00:00 22,6 12,4 - - 24 13 WSW 1016,3 - 60 0,0
23.06.2017 14:00:00 22,1 12,0 - - 21 11 WSW 1016,3 - 60 0,0
23.06.2017 13:00:00 21,5 12,0 - - 18 10 SW 1016,3 - 60 0,0
23.06.2017 12:00:00 20,3 12,0 - - 22 12 WSW 1016,8 - 60 0,0
23.06.2017 11:00:00 19,2 11,8 - - 18 10 SW 1016,8 - 54 0,0
23.06.2017 10:00:00 18,3 10,9 - 21,0 18 10 W 1016,8 0,3 60 0,0
23.06.2017 09:00:00 17,4 11,2 - - 16 9 W 1016,6 - 60 0,0
23.06.2017 08:00:00 15,8 11,1 - - 15 8 WSW 1016,2 - 60 0,0
23.06.2017 07:00:00 14,3 11,3 - - 8 4 WSW 1016,0 - 30 0,0
23.06.2017 06:00:00 12,8 11,1 - - 8 4 SSW 1016,0 - 6 0,0
23.06.2017 05:00:00 12,9 11,1 - - 8 4 W 1015,8 - 0 0,0
23.06.2017 04:00:00 13,5 11,8 - - 8 4 SW 1015,3 - 0 0,0
23.06.2017 03:00:00 14,5 12,8 - - 8 4 WSW 1014,8 - 0 0,0
23.06.2017 02:00:00 15,1 13,0 - - 8 4 SW 1015,0 - 0 0,0
23.06.2017 01:00:00 15,3 13,0 - - 5 3 S 1014,7 - - 0,0
23.06.2017 00:00:00 16,9 13,1 - - 5 3 SW 1014,5 - 0 0,0
22.06.2017 23:00:00 17,9 13,4 - - 11 6 WSW 1014,4 - 0 0,0
22.06.2017 22:00:00 18,9 13,8 - - 11 6 WSW 1013,9 - 0 0,0
22.06.2017 21:00:00 20,1 14,3 - - 8 4 SW 1013,2 - 0 0,0
22.06.2017 20:00:00 21,4 14,1 - - 13 7 W 1013,1 - 24 0,0
22.06.2017 19:00:00 21,8 14,6 - - 16 9 W 1012,8 - 24 0,0
22.06.2017 18:00:00 22,1 14,9 - - 15 8 W 1012,5 - 6 0,0
22.06.2017 17:00:00 22,6 15,1 - - 15 8 W 1012,1 - 6 0,0
22.06.2017 16:00:00 23,2 14,3 - - 21 11 W 1011,6 - 18 0,0
22.06.2017 15:00:00 24,0 14,9 - - 22 12 W 1011,4 - 36 0,0
22.06.2017 14:00:00 23,4 16,7 - - 21 11 W 1011,0 - 24 0,0
22.06.2017 13:00:00 21,1 17,4 - - 15 8 WSW 1011,0 - 12 0,0
22.06.2017 12:00:00 19,4 16,8 - - 13 7 SW 1011,6 - 0 0,6
22.06.2017 11:00:00 20,1 16,1 - - 16 9 WSW 1011,4 - 12 0,0
22.06.2017 10:00:00 22,1 16,6 - 23,0 13 7 SSW 1010,7 4,0 54 0,0
22.06.2017 09:00:00 21,3 16,5 - - 15 8 SSW 1011,4 - 48 0,0
22.06.2017 08:00:00 20,4 16,1 - - 13 7 SSW 1011,1 - 48 0,0
22.06.2017 07:00:00 19,3 16,1 - - 8 4 SSW 1010,8 - 24 0,0
22.06.2017 06:00:00 17,9 16,4 - - 4 2 S 1010,9 - 36 0,0
22.06.2017 05:00:00 17,7 16,5 - - 8 4 SSW 1011,0 - 6 0,0
22.06.2017 04:00:00 17,8 16,5 - - 5 3 S 1011,1 - 0 0,0
22.06.2017 03:00:00 19,1 16,9 - - 5 3 W 1011,4 - 0 0,0
22.06.2017 02:00:00 18,7 17,0 - - 2 1 SSE 1011,9 - 0 0,0
22.06.2017 01:00:00 20,3 17,8 - - 2 1 SSE 1011,9 - - 0,0
22.06.2017 00:00:00 20,1 17,6 - - 4 2 ESE 1012,0 - 0 0,0
21.06.2017 23:00:00 20,6 17,3 - - 4 2 S 1012,3 - 0 0,0
21.06.2017 22:00:00 23,4 18,4 - - 8 4 S 1012,2 - 0 0,0
21.06.2017 21:00:00 25,7 18,3 - - 9 5 S 1011,8 - 12 0,0
21.06.2017 20:00:00 28,7 18,2 - - 11 6 S 1011,8 - 60 0,0
21.06.2017 19:00:00 30,5 17,6 - - 11 6 SSW 1011,9 - 60 0,0
21.06.2017 18:00:00 31,0 17,4 - - 11 6 SSE 1012,1 - 60 0,0
21.06.2017 17:00:00 31,4 17,4 - - 9 5 S 1012,5 - 60 0,0
21.06.2017 16:00:00 31,1 16,0 - - 11 6 S 1013,0 - 60 0,0
21.06.2017 15:00:00 31,2 17,0 - - 13 7 S 1013,6 - 60 0,0
21.06.2017 14:00:00 30,5 16,4 - - 11 6 SSE 1014,1 - 54 0,0
21.06.2017 13:00:00 29,9 18,4 - - 9 5 SE 1014,5 - 60 0,0
21.06.2017 12:00:00 28,2 19,5 - - 5 3 ENE 1015,0 - 60 0,0
21.06.2017 11:00:00 26,1 19,3 - - 8 4 ESE 1015,4 - 60 0,0
21.06.2017 10:00:00 23,5 17,6 23,7 22,2 - - N 1015,9 2,6 60 0,0
21.06.2017 09:00:00 22,0 17,8 - - 8 4 NE 1016,2 - 48 0,0
21.06.2017 08:00:00 20,0 17,1 - - 8 4 NE 1016,5 - 18 0,0
21.06.2017 07:00:00 18,5 16,6 - - 8 4 NNE 1016,5 - 42 0,0
21.06.2017 06:00:00 17,0 16,4 - - 5 3 NE 1016,5 - 24 0,0
21.06.2017 05:00:00 16,0 15,5 - - 5 3 NNE 1016,8 - 6 0,0
21.06.2017 04:00:00 15,6 15,0 - - 5 3 N 1017,0 - 0 0,0
21.06.2017 03:00:00 15,0 14,3 - - 4 2 N 1017,4 - 0 0,0
21.06.2017 02:00:00 15,8 14,9 - - 8 4 NNE 1017,8 - 0 0,0
21.06.2017 01:00:00 15,6 14,6 - - 2 1 NNW 1018,3 - - 0,0
21.06.2017 00:00:00 16,4 15,1 - - 4 2 NE 1018,4 - 0 0,0
20.06.2017 23:00:00 16,9 15,6 - - 8 4 ENE 1018,3 - 0 0,0
20.06.2017 22:00:00 17,4 15,7 - - 5 3 ENE 1018,4 - 0 0,0
20.06.2017 21:00:00 19,0 15,7 - - 9 5 ENE 1018,3 - 54 0,0
20.06.2017 20:00:00 20,9 15,0 - - 11 6 ENE 1017,9 - 60 0,0
20.06.2017 19:00:00 22,3 16,4 - - 13 7 ENE 1017,8 - 60 0,0
20.06.2017 18:00:00 23,5 15,9 - - 21 11 ENE 1017,7 - 60 0,0
20.06.2017 17:00:00 24,9 17,3 - - 18 10 NE 1018,0 - 60 0,0
20.06.2017 16:00:00 26,3 17,4 - - 18 10 E 1017,9 - 60 0,0
20.06.2017 15:00:00 27,0 17,2 - - 11 6 NE 1017,8 - 60 0,0
20.06.2017 14:00:00 27,2 18,7 - - 13 7 NE 1017,8 - 60 0,0
20.06.2017 13:00:00 26,4 16,9 - - 11 6 E 1018,1 - 54 0,0
20.06.2017 12:00:00 25,7 17,8 - - 13 7 NE 1018,3 - 24 0,0
20.06.2017 11:00:00 25,5 17,1 - - 9 5 E 1018,2 - 42 0,0
20.06.2017 10:00:00 23,2 17,1 23,3 22,0 8 4 N 1018,5 50 30 0,0
20.06.2017 09:00:00 22,0 17,8 - - 8 4 NNE 1018,2 - 24 0,0
20.06.2017 08:00:00 20,4 17,4 - - 2 1 N 1018,1 - 60 0,0
20.06.2017 07:00:00 16,9 16,6 - - 0 0 N 1018,1 - 42 0,0
20.06.2017 06:00:00 14,7 14,4 - - 2 1 WSW 1017,7 - 60 0,0
20.06.2017 05:00:00 13,2 12,8 - - 4 2 WSW 1017,4 - 6 0,0
20.06.2017 04:00:00 12,9 12,4 - - 2 1 WSW 1017,5 - 0 0,0
20.06.2017 03:00:00 14,1 13,6 - - 2 1 W 1017,5 - 0 0,0
20.06.2017 02:00:00 14,3 13,5 - - 4 2 WSW 1018,0 - 0 0,0
20.06.2017 01:00:00 15,3 14,4 - - 2 1 WSW 1017,9 - - 0,0
20.06.2017 00:00:00 15,4 14,2 - - 4 2 W 1018,2 - 0 0,0
19.06.2017 23:00:00 16,7 15,1 - - 0 0 N 1018,0 - 0 0,0

tt = temperature
td = dewpoint
tt 5cm = temperature 5cm
tt -20cm = temperature -20cm
ff = wind speed
dd = wind direction
ppp = reduced air pressure
vv = visibility
sd = sunshine duration
rr = precipitation

Next stations